Weather History for Wink, TX

Change the Weather History Date:

Monday, November 3, 2014

  Actual Average Record
Temperature  
Mean Temperature 66 °F -  
Max Temperature 73 °F 70 °F 91 °F (2003)
Min Temperature 59 °F 39 °F 21 °F (1951)
Cooling Degree Days 1    
Growing Degree Days 16 (Base 50)    
Moisture  
Dew Point 53 °F    
Average Humidity 66    
Maximum Humidity 81    
Minimum Humidity 48    
Precipitation  
Precipitation 0.00 in - - ()
Sea Level Pressure  
Sea Level Pressure 29.89 in    
Wind  
Wind Speed 14 mph (SE)    
Max Wind Speed 22 mph    
Max Gust Speed 29 mph    
Visibility 10 miles    
Events      
Averages and records for this station are not official NWS values.
T = Trace of Precipitation, MM = Missing Value Source: NWS Daily Summary

Daily Weather History Graph

Daily Weather History Graph

Search for Another Location

Airport:

Trip Planner

Search our weather history database for the weather conditions in past years. The results will help you decide how hot, cold, wet, or windy it might be!

Date:

Astronomy

Nov. 03, 2014 Rise Set
Actual Time 7:10 AM CST 6:01 PM CST
Civil Twilight 6:45 AM CST 6:26 PM CST
Nautical Twilight 6:16 AM CST 6:55 PM CST
Astronomical Twilight 5:48 AM CST 7:24 PM CST
Moon 4:00 PM CST (11/3) 3:37 AM CST (11/3)
Length of Visible Light 11h 41m
Length of Day
10h 50m
Waxing Gibbous, 87% of the Moon is Illuminated
Nov 3
Waxing Gibbous
Nov 6
Full
Nov 14
Last Quarter
Nov 22
New
Nov 29
First Quarter

Hourly Weather History & Observations

Time (CST) Temp. Dew Point Humidity Pressure Visibility Wind Dir Wind Speed Gust Speed Precip Events Conditions
12:53 AM 60.1 °F 52.0 °F 75% 29.91 in 10.0 mi SSE 12.7 mph - N/A   Mostly Cloudy
1:53 AM 59.0 °F 52.0 °F 78% 29.89 in 10.0 mi SE 15.0 mph - N/A   Clear
2:53 AM 59.0 °F 52.0 °F 78% 29.88 in 10.0 mi SE 11.5 mph - N/A   Clear
3:53 AM 59.0 °F 52.0 °F 78% 29.87 in 10.0 mi SE 12.7 mph - N/A   Mostly Cloudy
4:53 AM 59.0 °F 52.0 °F 78% 29.87 in 10.0 mi SE 12.7 mph - N/A   Partly Cloudy
5:53 AM 59.0 °F 53.1 °F 81% 29.89 in 10.0 mi SE 12.7 mph - N/A   Clear
6:53 AM 59.0 °F 53.1 °F 81% 29.90 in 10.0 mi SE 12.7 mph 21.9 mph N/A   Scattered Clouds
7:53 AM 60.1 °F 53.1 °F 78% 29.92 in 10.0 mi SE 15.0 mph - N/A   Mostly Cloudy
8:53 AM 62.1 °F 54.0 °F 75% 29.95 in 10.0 mi SSE 12.7 mph 26.5 mph N/A   Clear
9:53 AM 64.9 °F 54.0 °F 68% 29.95 in 10.0 mi SSE 16.1 mph - N/A   Clear
10:53 AM 69.1 °F 54.0 °F 58% 29.95 in 10.0 mi SSE 15.0 mph 20.7 mph N/A   Partly Cloudy
12:53 PM 72.0 °F 53.1 °F 51% 29.90 in 10.0 mi SSE 12.7 mph 18.4 mph N/A   Scattered Clouds
1:53 PM 73.0 °F 52.0 °F 48% 29.86 in 10.0 mi SSE 11.5 mph - N/A   Scattered Clouds
2:53 PM 73.9 °F 54.0 °F 50% 29.85 in 10.0 mi SE 13.8 mph - N/A   Clear
3:53 PM 73.9 °F 53.1 °F 48% 29.83 in 10.0 mi SE 16.1 mph - N/A   Clear
4:53 PM 73.9 °F 53.1 °F 48% 29.83 in 10.0 mi SE 16.1 mph - N/A   Clear
5:53 PM 72.0 °F 54.0 °F 53% 29.83 in 10.0 mi SE 15.0 mph - N/A   Clear
6:53 PM 70.0 °F 55.0 °F 59% 29.84 in 10.0 mi SE 15.0 mph - N/A   Clear
7:53 PM 68.0 °F 55.9 °F 65% 29.86 in 10.0 mi SE 21.9 mph 28.8 mph N/A   Clear
8:53 PM 66.9 °F 55.9 °F 68% 29.86 in 10.0 mi SE 17.3 mph - N/A   Partly Cloudy
9:53 PM 66.9 °F 55.9 °F 68% 29.92 in 10.0 mi SW 5.8 mph - N/A   Overcast
10:01 PM 66.9 °F 55.9 °F 68% 30.01 in 10.0 mi SSW 5.8 mph - N/A   Overcast
10:53 PM 63.0 °F 53.1 °F 70% 29.94 in 10.0 mi NNE 17.3 mph - N/A   Overcast
11:53 PM 62.1 °F 51.1 °F 67% 29.93 in 10.0 mi NE 13.8 mph - N/A   Overcast